Location: Arboyeti
(42.1122°N, 44.6017°E)
Time: 19:44:35
(UTC+00:00)

Cosmos 2297 Rocket - Pass Details

Date: 19 April 2021
Orbit: 838 x 845 km, 71.0° (Epoch: 18 May)

Event Time Altitude Azimuth Distance (km) Brightness Sun altitude
Exits shadow 18:01:50 - 203° (SSW) 2,669 4.6 -22.6°
Reaches altitude 10° 18:02:25 10° 203° (SSW) 2,446 4.4 -22.6°
Maximum altitude 18:08:03 89° 294° (WNW) 846 2.1 -23.4°
Drops below altitude 10° 18:13:43 10° 24° (NNE) 2,467 4.8 -24.2°
Sets 18:16:11 0° 25° (NNE) 3,406 5.6 -24.5°
